Retour au catalogue

FENGYUN 1C DEB

ActifPO
NORAD 31768·DEBRIS·🇨🇳 China

Lancé May 10, 1999 depuis Taiyuan Satellite Launch Center

Loading…

Prochains Passages (prochaines 24 heures)

TLE

FraisSource: Space-Track

Époque: Sep 14, 2026, 06:18 UTC

1 31768U 99025CFT 26257.26255287  .00015145  00000-0  17130-2 0  9999
2 31768  99.0366  10.1742 0023270 191.3931 200.8450 14.86383859  9447

Suivez FENGYUN 1C DEB en temps réel avec AllMySat

Download on the App Store